Location: La Trinit�
(48.1620°N, 3.4512°W)
Time: 18:35:29
(UTC+00:00)

Cosmos 1933 - Pass Details

Date: 08 May 2021
Orbit: 547 x 562 km, 82.5° (Epoch: 21 June)

Event Time Altitude Azimuth Distance (km) Brightness Sun altitude
Exits shadow 20:16:24 - 160° (SSE) 2,443 6.1 -6.4°
Reaches altitude 10° 20:18:01 10° 152° (SSE) 1,837 5.4 -6.6°
Maximum altitude 20:21:33 30° 91° (E) 1,009 4.2 -7.1°
Drops below altitude 10° 20:25:07 10° 29° (NNE) 1,842 6.1 -7.6°
Sets 20:27:28 0° 19° (NNE) 2,740 7.1 -7.9°
